Location: ???? ??
(36.0534°N, 43.5630°E)
Time: 16:21:17
(UTC+00:00)

ATLAS 2AS CENTAUR R/B - Pass Details

Date: 18 September 2019
Orbit: 919 x 1292 km, 63.6° (Epoch: 21 September)

Event Time Altitude Azimuth Distance (km) Brightness Sun altitude
Rises 16:57:56 0° 327° (NNW) 4,158 6.6 -22.3°
Reaches altitude 10° 17:00:48 10° 326° (NW) 3,144 5.9 -22.9°
Maximum altitude 17:08:20 78° 241° (WSW) 1,149 2.8 -24.3°
Enters shadow 17:11:26 36° 161° (SSE) 1,649 3.3 -24.9°
